Tracking 19831 objects as of 23-Aug-2019
HD Live streaming from Space Station
objects crossing your sky now

COSMOS 2251 DEB

Track COSMOS 2251 DEB now!
10-day predictions


NORAD ID: 40801
Int'l Code: 1993-036BWE
Perigee: 560.1 km
Apogee: 639.1 km
Inclination: 74.0 °
Period: 96.5 minutes
Semi major axis: 6970 km
RCS: Unknown
Launch date: June 16, 1993
Source: Commonwealth of Independent States (former USSR) (CIS)
Launch site: PLESETSK MISSILE AND SPACE COMPLEX (PKMTR)

Note: This is SATELLITE DEBRIS
aabbcc
Your satellite tracking list
Your tracking list is empty




NASA's NSSDC Master Catalog

Two Line Element Set (TLE):
1 40801U 93036BWE 15184.88407729 +.00011498 +00000-0 +11082-2 0  9995
2 40801 074.0242 250.4409 0056721 220.7632 259.6771 14.91757350181369
Source of the keplerian elements: AFSPC